Location: ???????
(56.2906°N, 29.4824°E)
Time: 14:48:09
(UTC+00:00)

Daily predictions for brighter satellites

Satellite Brightness Start Highest point End
(mag) Time Altitude Azimuth Time Altitude Azimuth Time Altitude Azimuth
ADEOS Rocket 3.3 14:55:48 10° NNE 15:02:07 63° ESE 15:09:06 10° S
Cosmos 1844 Rocket 4.4 14:59:17 10° NW 15:03:15 19° N 15:07:12 10° NE
Cosmos 1408 4.0 15:04:15 10° NNE 15:06:57 19° ENE 15:09:38 10° ESE
USA 281 3.4 15:02:41 10° SSE 15:09:16 81° WSW 15:15:54 10° NNW
Cosmos 1328 4.3 15:05:25 10° NNW 15:09:22 65° W 15:13:16 10° S
NOAA 12 4.1 15:04:07 10° SSE 15:09:26 83° ENE 15:14:49 10° NNW
CZ-4B R/B 3.4 15:04:30 10° SSE 15:10:05 85° WSW 15:15:36 10° NNW
Cosmos 2058 Rocket 4.1 15:07:55 10° SE 15:11:40 26° E 15:15:26 10° NNE
CZ-4C R/B 3.1 15:05:55 10° WNW 15:11:51 47° N 15:18:58 10° E
Cosmos 1420 Rocket 4.5 15:06:45 10° SW 15:11:58 64° WNW 15:17:11 10° NNE
ERBS 2.3 15:11:14 10° W 15:14:34 79° N 15:17:55 10° E
Cosmos 2227 Rocket 2.2 15:08:57 10° NNW 15:14:39 77° NE 15:20:19 10° SE
Cosmos 2263 Rocket 3.2 15:11:31 10° NNW 15:16:28 29° NNE 15:21:24 10° E
SJ 16-02 3.5 15:16:14 10° N 15:17:28 11° NNE 15:18:42 10° NE
IRS-1C Rocket 4.3 15:12:55 10° SE 15:17:59 50° ENE 15:23:06 10° N
Cosmos 1818 3.8 15:13:27 10° WSW 15:18:54 72° NW 15:24:23 10° NE
Cosmos 1689 Rocket 4.0 15:17:48 10° ENE 15:19:09 12° E 15:20:29 10° ESE
Meteor 1-16 Rocket 4.3 15:14:56 10° SSW 15:20:30 81° WNW 15:25:56 10° NNE
Cosmos 1892 3.3 15:18:51 10° N 15:22:29 36° ENE 15:26:05 10° SE
Cosmos 1110 Rocket 4.1 15:17:25 10° S 15:22:34 59° ESE 15:27:42 10° NNE
FALCON 9 DEB 3.9 15:19:34 10° W 15:22:53 47° S 15:26:11 10° ESE
Cosmos 1908 3.6 15:22:45 10° SSW 15:26:36 69° WNW 15:30:30 10° N
H-2A R/B 1.9 15:22:34 10° NNE 15:26:48 85° ESE 15:30:55 10° SSW
Cosmos 1939 Rocket 3.0 15:24:15 10° SE 15:28:02 47° ENE 15:31:48 10° N
COSMO-SKYMED 1 3.6 15:24:32 10° NE 15:28:11 26° E 15:31:50 10° SSE
USA 307 3.8 15:24:45 10° W 15:28:53 46° SSW 15:32:59 10° SE
Cosmos 1486 Rocket 4.0 15:24:13 10° NNW 15:29:36 75° ENE 15:34:56 10° SE
NOSS 2-1 (E) 3.7 15:27:00 10° WSW 15:30:24 53° NNW 15:34:32 10° NE
Landsat 5 3.5 15:26:41 10° NNE 15:30:33 75° WNW 15:34:30 10° SSW
Envisat 4.1 15:26:01 10° S 15:30:57 50° W 15:35:55 10° NNW
SAR-Lupe-4 4.5 15:29:46 10° NE 15:32:55 28° E 15:36:03 10° SSE
USA 308 3.9 15:29:43 10° W 15:33:50 45° SSW 15:37:55 10° SE
Cosmos 1697 Rocket 4.0 15:30:38 10° SE 15:34:26 19° E 15:37:53 11° ENE
Cosmos 1825 Rocket 4.3 15:30:25 10° NNW 15:34:49 59° W 15:39:10 10° S
BREEZE-M R/B 4.2 15:32:53 10° WSW 15:36:07 37° S 15:42:00 10° ESE
Cosmos 1300 2.7 15:34:11 10° S 15:37:56 59° E 15:41:44 10° NNE
CZ-4B R/B 1.5 15:35:04 10° NNE 15:38:13 45° E 15:41:17 10° S
Cosmos 1825 3.2 15:35:01 10° N 15:38:16 26° ENE 15:41:29 10° SE
Cosmos 1400 Rocket 3.3 15:35:09 10° SSE 15:38:59 39° E 15:42:48 10° NNE
Cosmos 1503 Rocket 4.1 15:34:36 10° NNW 15:39:46 58° NE 15:44:58 10° SE
ERS-2 2.2 15:37:00 10° NNE 15:40:37 54° ESE 15:44:10 10° S
Helios 1A Rocket 3.0 15:41:02 10° SE 15:45:02 52° ENE 15:49:01 10° N
YAOGAN 1 2.9 15:42:27 10° SE 15:46:32 41° ENE 15:50:37 10° N
NOAA 11 4.3 15:41:34 10° SSE 15:47:01 81° WSW 15:52:29 10° NNW
CZ-4 R/B 4.4 15:44:06 10° SSE 15:48:13 61° ENE 15:52:21 10° N
Cosmos 1340 2.7 15:45:51 10° NNW 15:49:39 84° WSW 15:53:26 10° S
Cosmos 44 3.3 15:46:29 10° SSW 15:50:58 57° SE 15:55:01 14° NE
Cosmos 1354 Rocket 4.0 15:47:19 10° NNW 15:52:34 64° ENE 15:57:48 10° SE
Okean O Rocket 3.0 15:49:07 10° S 15:53:15 41° W 15:57:25 10° NNW
CZ-2D R/B 3.2 15:50:11 10° SSE 15:53:57 63° ENE 15:57:44 10° N
Cosmos 2297 Rocket 2.9 15:48:33 10° NW 15:54:08 57° WSW 15:59:39 10° SSE
Cosmos 2228 3.1 15:50:10 10° SSW 15:54:26 78° WNW 15:58:47 10° N
Cosmos 1726 Rocket 3.5 15:50:38 10° S 15:55:01 84° E 15:59:28 10° NNE
In-Cosmos 22 Rocket 4.1 15:50:23 10° NNW 15:55:47 89° WSW 16:01:15 10° SSE
Timation 1 Rocket 4.3 15:49:55 10° NW 15:55:57 70° NE 16:01:58 10° SE
CZ-4 R/B 1.4 15:52:16 10° SE 15:56:02 52° ENE 15:59:48 10° N
Aureole 3 2.7 15:53:38 10° S 15:56:32 50° E 15:59:31 10° NNE
Cosmos 2369 Rocket 3.7 15:51:33 10° W 15:56:41 33° NNW 16:01:50 10° NNE
Cosmos 1346 Rocket 2.7 15:52:42 10° N 15:56:42 63° ENE 16:00:40 10° SSE
Cosmos 2058 2.9 15:52:42 10° N 15:56:46 56° ENE 16:00:48 10° SSE
Cosmos 1980 Rocket 3.7 15:54:50 10° SE 15:57:31 16° ESE 15:57:31 16° ESE
SL-4 R/B 2.8 15:55:04 10° WSW 15:58:20 36° S 16:00:58 15° SE
Cosmos 2151 3.9 15:55:34 10° N 15:59:12 27° ENE 16:00:54 21° ESE
PSLV R/B 4.4 15:57:19 10° NNE 16:01:16 38° E 16:05:09 10° SSE
CSL-04 Debris 4.3 15:59:34 10° SE 16:04:51 52° ENE 16:10:10 10° N
CZ-2C R/B 3.2 15:59:19 10° SSE 16:04:59 62° ENE 16:10:25 10° N
Cosmos 1553 Rocket 4.0 16:01:43 10° S 16:07:55 61° E 16:14:03 10° NNE
Cosmos 2227 4.5 16:05:44 10° NNW 16:11:12 47° NE 16:14:40 21° ESE
Cosmos 1606 Rocket 4.2 16:07:11 10° SSW 16:11:31 59° WNW 16:15:56 10° N
NOSS 3-4 (A) 3.7 16:05:21 10° NW 16:12:03 79° NE 16:18:11 16° ESE
NOSS 3-4 (C) 3.7 16:05:28 10° NW 16:12:09 79° NNE 16:18:14 16° ESE
Cosmos 1315 Rocket 3.4 16:09:06 10° SSE 16:12:41 33° E 16:15:47 13° NNE
Ariane Rocket 3.9 16:13:29 24° E 16:15:00 28° NE 16:19:19 10° N
SKYMED 2 3.5 16:12:14 10° NNE 16:16:35 63° ESE 16:20:54 10° S
Meteor 2-10 Rocket 3.6 16:12:07 10° S 16:17:08 49° E 16:22:01 10° NNE
USA 305 4.5 16:14:36 10° W 16:18:24 31° SSW 16:22:01 11° SSE
Cosmos 292 Rocket 4.0 16:17:34 10° SW 16:22:23 73° WNW 16:27:15 10° NNE
NOSS 2-1 (C) 4.4 16:19:21 10° W 16:22:40 34° NNW 16:24:52 21° NE
Cosmos 1943 Rocket 4.0 16:19:02 10° WNW 16:23:19 22° NNW 16:27:36 10° NNE
SeaSat 1 2.5 16:20:50 23° ESE 16:23:49 57° NE 16:28:41 10° NNW
Cosmos 1455 2.4 16:21:41 10° SSE 16:25:18 44° E 16:28:40 12° NNE
Cosmos 1441 Rocket 4.4 16:21:59 10° N 16:24:39 26° NE 16:24:39 26° NE
H-2A R/B 2.1 16:20:27 10° SSE 16:25:50 66° ENE 16:31:16 10° NNW
MOS 1 Rocket 3.8 16:22:33 10° NNE 16:26:51 35° E 16:31:21 10° SSE
USA 215 3.2 16:22:48 24° E 16:27:06 87° N 16:33:41 10° W
Aureole 3 Rocket 3.7 16:22:36 10° SSW 16:27:10 83° WNW 16:33:44 10° NNE
NOSS 2-1 (D) 4.5 16:24:40 10° WNW 16:27:59 34° N 16:30:00 22° NE
Cosmos 1745 Rocket 4.0 16:22:07 10° NNW 16:28:27 88° W 16:34:48 10° S
Okean-O 2.8 16:25:46 10° S 16:30:12 73° WSW 16:34:40 10° NNW
ATLAS 5 CENTAUR R/B 2.8 16:29:03 10° WNW 16:33:25 38° N 16:36:02 23° NE
COSMOS 2455 3.9 16:28:33 10° NW 16:33:57 32° NNE 16:36:35 23° NE
ATLAS 2AS CENTAUR R/B 2.8 16:26:24 10° NW 16:34:10 82° NE 16:38:50 24° ESE
Meteor 2-3 Rocket 4.1 16:29:19 10° N 16:34:49 44° ENE 16:37:17 29° ESE
Cosmos 2082 4.3 16:29:18 10° NW 16:34:56 59° WSW 16:40:33 10° SSE
FALCON 9 DEB 3.8 16:32:36 10° SW 16:35:33 36° SSE 16:35:33 36° SSE
FALCON 9 DEB 3.8 16:34:35 10° SW 16:37:27 36° S 16:37:27 36° S
Lacrosse 5 1.8 16:33:56 10° W 16:39:02 88° N 16:41:00 39° E
GEOS 3 Rocket 3.8 16:36:12 20° SE 16:40:02 77° SW 16:45:29 10° NW
ARGOS 3.1 16:35:50 12° SSE 16:40:48 66° ENE 16:46:13 10° NNW
Cosmos 2278 Rocket 4.0 16:36:50 10° NW 16:40:51 19° N 16:43:08 15° NE
Cosmos 1408 3.3 16:38:41 10° NNW 16:42:16 54° W 16:45:52 10° S
Cosmos 44 Rocket 4.5 16:38:22 10° S 16:41:12 25° SE 16:41:12 25° SE
Cosmos 1656 3.6 16:38:52 10° SSW 16:44:28 81° ESE 16:49:12 15° NE
SL-08 RB Rocket 3.7 16:48:05 48° ESE 16:48:50 54° ENE 16:53:15 10° N
Cosmos 1844 Rocket 3.6 16:43:55 10° NNW 16:48:57 31° NNE 16:50:00 29° NE
Cosmos 2058 Rocket 4.0 16:45:02 10° SSW 16:49:25 51° WNW 16:53:52 10° N
HJ-1C 3.3 16:49:48 76° SSE 16:50:03 90° NE 16:53:27 10° NNW
Cosmos 1689 Rocket 2.7 16:49:48 37° NNW 16:50:37 53° WNW 16:53:27 10° SSW
ERBS 2.2 16:47:32 10° WNW 16:50:48 80° SW 16:50:48 80° SW
FALCON 9 DEB 4.1 16:49:08 10° WSW 16:51:36 35° SSW 16:51:36 35° SSW
Cosmos 1076 Rocket 4.0 16:49:56 10° NNW 16:54:08 60° W 16:58:19 10° S
Cosmos 2184 Rocket 4.3 16:48:17 10° N 16:54:18 43° ENE 16:55:37 39° E
Cosmos 2369 3.8 16:49:45 10° S 16:55:18 53° ESE 16:57:12 37° ENE
Cosmos 1777 Rocket 3.9 16:50:50 10° NNW 16:56:04 83° ENE 16:58:19 35° SE
SJ 16-02 2.4 16:53:25 10° NNW 16:56:44 31° NNE 16:56:44 31° NNE
Cosmos 1709 Rocket 4.0 16:51:32 10° NNW 16:57:58 90° W 17:04:22 10° S
Cosmos 2227 Rocket 4.3 16:53:33 10° NW 16:58:14 27° WSW 17:02:53 10° SSW
Meteor 2-17 Rocket 4.4 16:52:18 10° N 16:58:17 57° ENE 17:00:29 37° SE
Cosmos 2263 Rocket 2.1 16:55:29 10° NW 17:01:14 82° NE 17:03:25 40° SE
CZ-4C R/B 2.8 16:54:41 10° NW 17:01:17 73° NNE 17:04:27 39° ESE
FALCON 9 DEB 4.4 16:58:40 10° WSW 17:00:47 32° SW 17:00:47 32° SW
CSL-04 Rocket 3.9 16:56:37 10° S 17:02:09 73° WSW 17:07:40 10° NNW
RESURS DK-1 4.2 16:59:00 10° NNW 17:01:39 20° NNE 17:01:39 20° NNE
COSMO-SKYMED 1 3.3 17:00:23 10° N 17:04:38 52° WNW 17:08:51 10° SW
SJ-6B 3.9 17:09:34 35° NNE 17:09:34 35° NNE 17:12:13 10° N
CZ-4B R/B 4.1 17:07:52 10° NNW 17:10:13 19° WNW 17:12:32 10° WSW
Cosmos 2074 Rocket 4.0 17:06:17 10° N 17:12:24 55° ENE 17:13:23 50° ESE
Cosmos 1825 3.5 17:10:21 10° NNW 17:13:55 39° W 17:17:27 10° SSW
Cosmos 1697 Rocket 2.5 17:11:58 10° SSW 17:17:36 80° ESE 17:19:40 41° NE
Cosmos 883 Rocket 4.3 17:11:41 10° S 17:17:50 84° E 17:24:00 10° NNE
Cosmos 1898 Rocket 4.2 17:14:38 10° NNW 17:19:10 39° NE 17:19:10 39° NE
YAOGAN 1 4.3 17:18:50 10° SSW 17:22:43 32° W 17:26:39 10° NNW
S3M 4.4 17:18:43 10° SSW 17:24:48 63° WNW 17:31:00 10° N
Cosmos 1766 Rocket 3.8 17:22:31 10° NNW 17:26:21 64° N 17:26:21 64° N
DMSP B5D1-3 4.5 17:22:13 10° NNE 17:27:24 84° WNW 17:32:34 10° SSW
Cosmos 2315 Rocket 3.8 17:22:13 10° S 17:28:24 83° E 17:34:39 10° NNE
Cosmos 1812 Rocket 4.0 17:25:45 10° SSW 17:30:06 61° WNW 17:34:27 10° N
Okean 3 Rocket 3.8 17:25:43 10° NNW 17:29:27 63° NNW 17:29:27 63° NNW
SPOT 3 Rocket 4.2 17:32:20 42° NNE 17:32:20 42° NNE 17:36:13 10° N
EO 1 Delta rocket 4.2 17:26:03 10° NNE 17:30:04 53° NNE 17:30:04 53° NNE
CZ-4 R/B 3.8 17:28:22 10° SW 17:31:22 21° W 17:34:22 10° NW
Resurs 01 Rocket 3.5 17:34:04 20° N 17:34:04 20° N 17:35:39 10° N
Cosmos 44 4.1 17:27:50 10° W 17:32:23 46° NNW 17:33:26 40° N
Cosmos 2151 3.9 17:32:39 10° NNW 17:36:42 46° W 17:37:31 40° SW
SL-4 R/B 4.1 17:34:43 10° WSW 17:36:33 17° SW 17:36:33 17° SW
MetOp-A 4.0 17:40:22 83° S 17:40:35 89° WSW 17:46:00 10° NNW
Cosmos 1980 Rocket 2.8 17:35:37 10° SSW 17:39:22 43° S 17:39:22 43° S
Cosmos 2369 Rocket 4.2 17:38:27 10° NW 17:42:30 19° N 17:44:55 15° NNE
Cosmos 1992 Rocket 4.4 17:37:55 10° SW 17:43:05 60° NW 17:45:23 32° NNE
Cosmos 1315 Rocket 4.5 17:45:36 10° SW 17:49:15 33° WNW 17:51:36 19° N
Ariane Rocket 3.2 17:53:41 68° W 17:53:41 68° W 17:58:45 10° NNW
Cosmos 2154 Rocket 4.1 17:49:45 10° N 17:55:10 63° NNE 17:55:10 63° NNE
Cosmos 1455 4.5 17:57:59 10° WSW 18:01:08 24° WNW 18:03:49 12° NNW
SeaSat 1 3.7 18:00:38 33° SW 18:01:33 36° WSW 18:06:07 10° NW
Cosmos 2360 4.4 17:58:54 10° SW 18:04:36 70° NW 18:04:36 70° NW
MOS 1 Rocket 4.4 18:00:49 10° N 18:05:13 43° WNW 18:09:49 10° SW
H-2A R/B 4.0 18:01:01 10° SSW 18:05:41 28° W 18:10:23 10° NNW
Cosmos 1943 Rocket 4.1 18:05:23 10° NW 18:09:06 18° N 18:09:41 18° NNE
USA 215 3.3 18:10:10 62° SSW 18:10:23 62° SSW 18:16:54 10° WNW
NOSS 3-3 (A) 4.1 18:10:15 10° WSW 18:16:10 78° WNW 18:16:10 78° WNW
NOSS 3-3 (C) 4.1 18:10:22 10° WSW 18:16:13 78° WNW 18:16:13 78° WNW
ATLAS 5 CENTAUR R/B 3.1 18:14:06 10° NW 18:17:34 39° NNW 18:17:34 39° NNW
COSMOS 2455 3.4 18:14:57 10° NW 18:19:43 50° N 18:19:43 50° N
CZ-2C R/B 4.5 18:16:00 10° NNE 18:17:53 22° NNE 18:17:53 22° NNE
Lacrosse 5 3.2 18:16:59 10° WNW 18:20:11 35° W 18:20:11 35° W
ATLAS 2AS CENTAUR R/B 3.7 18:17:48 10° NW 18:24:41 40° WSW 18:26:17 35° SSW
Cosmos 2278 Rocket 3.7 18:21:30 10° NNW 18:24:58 28° N 18:24:58 28° N
Cosmos 1844 Rocket 3.6 18:27:49 10° NW 18:31:40 45° NW 18:31:40 45° NW
Terra 4.5 18:38:36 12° N 18:38:36 12° N 18:39:03 10° N
SJ 16-02 3.6 18:31:57 10° NW 18:33:43 22° NW 18:33:43 22° NW
Cosmos 2263 Rocket 3.9 18:40:02 10° NW 18:44:36 25° WSW 18:45:08 25° WSW
CZ-4C R/B 3.4 18:43:13 10° NW 18:49:38 49° WSW 18:49:38 49° WSW
Cosmos 1697 Rocket 4.2 18:57:04 10° W 19:01:26 32° NW 19:01:26 32° NW
ATLAS CENTAUR R/B 4.4 18:48:29 10° W 19:12:41 90° S 19:13:46 79° ESE
Cosmos 2369 Rocket 4.4 19:24:10 10° NNW 19:26:41 19° N 19:26:41 19° N
